This is the latest recevied weather packets stored in our database for station/object PA1CG-7. If no packets are shown the sender has not sent any weather packets the latest 10 day(s).
| Time | Temp. | Humidity | Pressure | Rain* | Wind** | Luminosity | Snow |
|---|---|---|---|---|---|---|---|
| 1778151736 | 17.22° C | 58% | 1016.5 hPa | 0 mm | - | - | - |
| 1778151136 | 17.22° C | 58% | 1016.5 hPa | 0 mm | - | - | - |
| 1778150536 | 16.67° C | 59% | 1016.5 hPa | 0 mm | - | - | - |
| 1778149936 | 16.11° C | 60% | 1016.5 hPa | 0 mm | - | - | - |
| 1778149336 | 16.11° C | 61% | 1016.5 hPa | 0 mm | - | - | - |
| 1778148736 | 16.11° C | 61% | 1016.5 hPa | 0 mm | - | - | - |
| 1778148136 | 16.11° C | 61% | 1016.5 hPa | 0 mm | - | - | - |
| 1778147536 | 15.56° C | 61% | 1016.4 hPa | 0 mm | - | - | - |
| 1778146936 | 15.56° C | 61% | 1016.4 hPa | 0 mm | - | - | - |
| 1778146336 | 15.56° C | 60% | 1016.2 hPa | 0 mm | - | - | - |
| 1778145736 | 16.11° C | 60% | 1016.2 hPa | 0 mm | - | - | - |
| 1778145136 | 15.56° C | 60% | 1016.1 hPa | 0 mm | - | - | - |
| 1778144536 | 15.56° C | 59% | 1016.1 hPa | 0 mm | - | - | - |
| 1778143936 | 15° C | 56% | 1016.1 hPa | 0 mm | - | - | - |
| 1778143336 | 15° C | 58% | 1016 hPa | 0 mm | - | - | - |
| 1778142736 | 14.44° C | 58% | 1016.1 hPa | 0 mm | - | - | - |
| 1778142136 | 14.44° C | 61% | 1016.1 hPa | 0 mm | - | - | - |
| 1778141536 | 13.89° C | 61% | 1016.1 hPa | 0 mm | - | - | - |
| 1778140936 | 13.89° C | 62% | 1016 hPa | 0 mm | - | - | - |
| 1778140336 | 13.33° C | 63% | 1016 hPa | 0 mm | - | - | - |
| 1778139736 | 13.33° C | 66% | 1015.9 hPa | 0 mm | - | - | - |
| 1778139136 | 12.78° C | 67% | 1015.8 hPa | 0 mm | - | - | - |
| 1778138536 | 12.22° C | 68% | 1015.9 hPa | 0 mm | - | - | - |
| 1778137936 | 12.22° C | 69% | 1015.8 hPa | 0 mm | - | - | - |
| 1778137336 | 11.67° C | 71% | 1015.8 hPa | 0 mm | - | - | - |
* Rain latest hour (hover to see other rain measurements)
** Current wind speed in m/s (hover to see current wind gust speed)